This demonstration page uses our WeatherBlox Daily Observations layout. Learn more.

Left ArrowRight Arrow

39.01783, -85.05884

Hourly Observations for November 28, 2022

Temp ( °F °C ) Dew Point ( °F °C ) Humidity (%) Winds ( mph kmh ) Pressure ( in mb ) Visibility ( mi km ) Precip ( " mm )
12:17 am 00:17 Cloudy with Mist and Fog 43 6.1 41 5 93 93 W 8 13 29.82 1010 6 10 0.00 0.00
12:52 am 00:52 Cloudy 43 6.1 41 5 93 93 WNW 9 15 29.79 1009 8 13 0.00 0.00
1:52 am 01:52 Cloudy with Mist and Fog 43 6.1 40 4.4 89 89 W 7 11 29.81 1010 6 10 0.00 0.00
2:52 am 02:52 Cloudy 42 5.6 40 4.4 92 92 W 8 13 29.83 1010 7 11 0.00 0.00
3:42 am 03:42 Cloudy with Mist and Fog 42 5.6 40 4.4 92 92 W 6 9 29.87 1011 6 10 0.00 0.00
3:52 am 03:52 Cloudy with Mist and Fog 42 5.6 40 4.4 92 92 W 3 6 29.84 1011 6 10 0.00 0.00
4:52 am 04:52 Cloudy with Mist and Fog 42 5.6 41 5 96 96 W 6 9 29.85 1011 5 8 0.00 0.00
5:52 am 05:52 Cloudy with Mist and Fog 42 5.6 41 5 96 96 W 5 7 29.87 1012 5 8 0.00 0.00
6:52 am 06:52 Cloudy 42 5.6 41 5 96 96 W 6 9 29.90 1012 7 11 0.00 0.00
7:52 am 07:52 Cloudy with Mist and Fog 42 5.6 41 5 96 96 WSW 5 7 29.93 1013 6 10 0.00 0.00
8:08 am 08:08 Cloudy with Mist and Fog 42 5.6 41 5 96 96 WSW 3 6 29.96 1014 5 8 0.00 0.00
8:52 am 08:52 Cloudy with Mist and Fog 42 5.6 41 5 96 96 WSW 6 9 29.95 1014 5 8 0.00 0.00
9:26 am 09:26 Cloudy with Mist and Fog 43 6.1 42 5.6 97 97 Calm 29.98 1015 5 8 0.00 0.00
9:52 am 09:52 Cloudy with Mist and Fog 43 6.1 41 5 93 93 WSW 6 9 29.96 1015 6 10 0.00 0.00
10:52 am 10:52 Cloudy 44 6.7 42 5.6 93 93 W 6 9 29.98 1015 8 13 0.00 0.00
11:52 am 11:52 Cloudy 45 7.2 42 5.6 90 90 VRB 6 9 29.98 1015 8 13 0.00 0.00
12:19 pm 12:19 Cloudy 45 7.2 41 5 86 86 SW 7 11 29.99 1016 8 13 0.00 0.00
12:52 pm 12:52 Cloudy 45 7.2 41 5 86 86 W 7 11 29.97 1015 7 11 0.00 0.00
1:52 pm 13:52 Cloudy with Mist and Fog 45 7.2 41 5 86 86 W 5 7 29.97 1015 6 10 0.00 0.00
2:52 pm 14:52 Cloudy with Mist and Fog 46 7.8 42 5.6 86 86 Calm 29.97 1015 6 10 0.00 0.00
3:52 pm 15:52 Cloudy with Haze 46 7.8 41 5 82 82 WSW 3 6 29.98 1015 6 10 0.00 0.00
4:52 pm 16:52 Cloudy with Mist and Fog 45 7.2 41 5 86 86 SSW 3 6 29.99 1016 5 8 0.00 0.00
5:52 pm 17:52 Cloudy with Mist and Fog 45 7.2 41 5 86 86 SSW 5 7 30.01 1016 6 10 0.00 0.00
6:52 pm 18:52 Cloudy with Mist and Fog 45 7.2 42 5.6 90 90 S 5 7 30.02 1017 5 8 0.00 0.00
7:52 pm 19:52 Cloudy with Mist and Fog 45 7.2 42 5.6 90 90 S 3 6 30.02 1017 5 8 0.00 0.00
8:26 pm 20:26 Cloudy with Mist and Fog 45 7.2 42 5.6 90 90 S 6 9 30.04 1017 4 6 0.00 0.00
8:52 pm 20:52 Cloudy with Mist and Fog 45 7.2 42 5.6 90 90 S 7 11 30.04 1017 4 6 0.00 0.00
9:52 pm 21:52 Cloudy with Mist and Fog 45 7.2 43 6.1 93 93 S 6 9 30.05 1018 4 6 0.00 0.00
10:52 pm 22:52 Cloudy with Mist and Fog 45 7.2 43 6.1 93 93 S 7 11 30.03 1017 4 6 0.00 0.00
11:52 pm 23:52 Cloudy with Mist and Fog 45 7.2 43 6.1 93 93 S 6 9 30.02 1017 4 6 0.00 0.00

Powered by AerisWeather